CMP230 MPTO-SKSP

Flight info

Callsign CMP230
Flight time 0h 51m
Altitude 30000
Route SIMA3A SIMAN BIXOX BIXO2C
Aircraft B738/M-SDE3FGHIRWY/S

Departure

Time 2026-04-30 18:45
Airport Tocumen International Airport (MPTO)

Arrival

Time 2026-04-30 19:37
Airport Gustavo Rojas Pinilla International Airport (SKSP)
Time Latitude Longitude Altitude Speed Heading
2026-04-30 18:05 9.06368 -79.38889 29 ft 0 kts 290°
2026-04-30 18:29 9.06348 -79.38825 29 ft 4 kts 266°
2026-04-30 18:30 9.06381 -79.38804 29 ft 1 kts 187°
2026-04-30 18:30 9.06386 -79.38804 29 ft 0 kts 187°
2026-04-30 18:34 9.06351 -79.38808 29 ft 6 kts 186°
2026-04-30 18:34 9.06320 -79.38790 29 ft 6 kts 92°
2026-04-30 18:35 9.06336 -79.38750 29 ft 6 kts 68°
2026-04-30 18:35 9.06345 -79.38710 29 ft 6 kts 96°
2026-04-30 18:35 9.06333 -79.38669 29 ft 7 kts 113°
2026-04-30 18:36 9.06227 -79.38625 29 ft 11 kts 188°
2026-04-30 18:36 9.06144 -79.38652 29 ft 14 kts 208°
2026-04-30 18:36 9.05955 -79.38759 29 ft 18 kts 209°
2026-04-30 18:37 9.05843 -79.38823 29 ft 19 kts 210°
2026-04-30 18:37 9.05723 -79.38894 29 ft 20 kts 210°
2026-04-30 18:37 9.05602 -79.38965 29 ft 20 kts 210°
2026-04-30 18:37 9.05485 -79.39032 29 ft 19 kts 210°
2026-04-30 18:38 9.05372 -79.39097 29 ft 18 kts 210°
2026-04-30 18:38 9.05262 -79.39160 29 ft 18 kts 210°
2026-04-30 18:38 9.05156 -79.39221 29 ft 17 kts 209°
2026-04-30 18:38 9.05053 -79.39279 29 ft 17 kts 209°
2026-04-30 18:39 9.04954 -79.39336 29 ft 16 kts 210°
2026-04-30 18:39 9.04879 -79.39377 29 ft 9 kts 198°
2026-04-30 18:39 9.04827 -79.39356 29 ft 9 kts 126°
2026-04-30 18:39 9.04809 -79.39327 30 ft 0 kts 120°
2026-04-30 18:41 9.04807 -79.39323 30 ft 2 kts 120°
2026-04-30 18:41 9.04793 -79.39300 30 ft 6 kts 120°
2026-04-30 18:41 9.04778 -79.39262 30 ft 6 kts 81°
2026-04-30 18:41 9.04798 -79.39241 30 ft 0 kts 31°
2026-04-30 18:45 9.08953 -79.37035 1606 ft 198 kts 39°
2026-04-30 18:45 9.09903 -79.35988 2395 ft 208 kts 57°
2026-04-30 18:45 9.10532 -79.34605 2933 ft 225 kts 68°
2026-04-30 18:46 9.11075 -79.33087 3568 ft 232 kts 70°
2026-04-30 18:46 9.11733 -79.31577 4188 ft 244 kts 58°
2026-04-30 18:46 9.12766 -79.30177 4931 ft 245 kts 44°
2026-04-30 18:46 9.14041 -79.29153 6138 ft 231 kts 28°
2026-04-30 18:47 9.15572 -79.28573 6719 ft 247 kts 14°
2026-04-30 18:47 9.17374 -79.28358 6843 ft 277 kts 357°
2026-04-30 18:47 9.19298 -79.28571 7543 ft 277 kts 355°
2026-04-30 18:47 9.21134 -79.28617 8884 ft 254 kts
2026-04-30 18:48 9.22882 -79.28491 9565 ft 256 kts
2026-04-30 18:48 9.24715 -79.28447 9968 ft 275 kts 353°
2026-04-30 18:48 9.26592 -79.29103 9999 ft 299 kts 326°
2026-04-30 18:48 9.28016 -79.30639 10016 ft 305 kts 299°
2026-04-30 18:49 9.28654 -79.32676 10522 ft 305 kts 279°
2026-04-30 18:49 9.28904 -79.34809 11275 ft 307 kts 275°
2026-04-30 18:49 9.28939 -79.36977 11974 ft 310 kts 266°
2026-04-30 18:49 9.28762 -79.39131 12694 ft 313 kts 264°
2026-04-30 18:50 9.28462 -79.41318 13418 ft 315 kts 253°
2026-04-30 18:50 9.27807 -79.43446 14173 ft 317 kts 253°
2026-04-30 18:50 9.27301 -79.45622 14801 ft 321 kts 263°
2026-04-30 18:50 9.27165 -79.47904 15407 ft 328 kts 268°
2026-04-30 18:51 9.27113 -79.50211 16196 ft 328 kts 268°
2026-04-30 18:51 9.27102 -79.52529 16894 ft 331 kts 269°
2026-04-30 18:51 9.27145 -79.54875 17549 ft 335 kts 275°
2026-04-30 18:51 9.27651 -79.57213 17834 ft 350 kts 284°
2026-04-30 18:52 9.28319 -79.59615 17960 ft 369 kts 285°
2026-04-30 18:52 9.29089 -79.62147 18262 ft 381 kts 286°
2026-04-30 18:52 9.29878 -79.64720 18833 ft 384 kts 286°
2026-04-30 18:52 9.30656 -79.67312 19467 ft 385 kts 285°
2026-04-30 18:53 9.31420 -79.69914 20079 ft 387 kts 285°
2026-04-30 18:53 9.32180 -79.72537 20652 ft 389 kts 285°
2026-04-30 18:53 9.32943 -79.75169 21128 ft 392 kts 285°
2026-04-30 18:53 9.33700 -79.77835 21634 ft 395 kts 285°
2026-04-30 18:54 9.34461 -79.80514 22171 ft 396 kts 285°
2026-04-30 18:54 9.35216 -79.83163 22684 ft 398 kts 285°
2026-04-30 18:54 9.36382 -79.85714 23073 ft 405 kts 304°
2026-04-30 18:54 9.38266 -79.87772 23557 ft 409 kts 321°
2026-04-30 18:55 9.40697 -79.89326 24060 ft 412 kts 328°
2026-04-30 18:55 9.45759 -79.92149 24824 ft 419 kts 329°
2026-04-30 18:55 9.48330 -79.93558 25205 ft 421 kts 329°
2026-04-30 18:56 9.53459 -79.96398 26306 ft 417 kts 329°
2026-04-30 18:56 9.55962 -79.97801 26869 ft 415 kts 328°
2026-04-30 18:56 9.58374 -79.99160 27322 ft 415 kts 328°
2026-04-30 18:57 9.63409 -80.02012 28332 ft 413 kts 328°
2026-04-30 18:57 9.65912 -80.03431 28854 ft 412 kts 328°
2026-04-30 18:57 9.68408 -80.04848 29349 ft 411 kts 328°
2026-04-30 18:58 9.72739 -80.07307 29808 ft 416 kts 328°
2026-04-30 18:58 9.75256 -80.08738 29828 ft 415 kts 328°
2026-04-30 18:59 9.82697 -80.12962 29845 ft 409 kts 327°
2026-04-30 19:00 9.92690 -80.18642 29843 ft 413 kts 328°
2026-04-30 19:01 10.02671 -80.24315 29847 ft 411 kts 327°
2026-04-30 19:02 10.10134 -80.28564 29850 ft 409 kts 327°
2026-04-30 19:03 10.20002 -80.34181 29852 ft 407 kts 327°
2026-04-30 19:04 10.29882 -80.39811 29853 ft 408 kts 327°
2026-04-30 19:05 10.39826 -80.45481 29828 ft 411 kts 327°
2026-04-30 19:06 10.49755 -80.51149 29833 ft 409 kts 327°
2026-04-30 19:06 10.57200 -80.55401 29830 ft 409 kts 327°
2026-04-30 19:07 10.64604 -80.59625 29820 ft 408 kts 327°
2026-04-30 19:08 10.74511 -80.65289 29824 ft 409 kts 327°
2026-04-30 19:09 10.81877 -80.69502 29828 ft 409 kts 327°
2026-04-30 19:09 10.86778 -80.72306 29824 ft 401 kts 327°
2026-04-30 19:10 10.96400 -80.77815 29542 ft 398 kts 326°
2026-04-30 19:11 10.98794 -80.79186 29259 ft 392 kts 326°
2026-04-30 19:11 11.03515 -80.81890 28500 ft 387 kts 327°
2026-04-30 19:11 11.05818 -80.83210 28127 ft 384 kts 327°
2026-04-30 19:12 11.08142 -80.84543 27739 ft 382 kts 327°
2026-04-30 19:12 11.10450 -80.85867 27355 ft 380 kts 327°
2026-04-30 19:12 11.12749 -80.87185 26807 ft 381 kts 327°
2026-04-30 19:13 11.17388 -80.89850 25849 ft 382 kts 327°
2026-04-30 19:13 11.21990 -80.92489 25075 ft 377 kts 327°
2026-04-30 19:13 11.24269 -80.93797 24689 ft 374 kts 327°
2026-04-30 19:14 11.26497 -80.95075 24301 ft 372 kts 327°
2026-04-30 19:14 11.28741 -80.96363 23940 ft 369 kts 328°
2026-04-30 19:14 11.30971 -80.97644 23568 ft 366 kts 328°
2026-04-30 19:14 11.33183 -80.98915 23196 ft 364 kts 328°
2026-04-30 19:15 11.35379 -81.00177 22828 ft 361 kts 328°
2026-04-30 19:15 11.39724 -81.02675 22099 ft 356 kts 328°
2026-04-30 19:15 11.41872 -81.03911 21738 ft 354 kts 328°
2026-04-30 19:16 11.43984 -81.05126 21314 ft 353 kts 328°
2026-04-30 19:16 11.46117 -81.06353 20954 ft 351 kts 328°
2026-04-30 19:16 11.50351 -81.08789 20238 ft 347 kts 328°
2026-04-30 19:17 11.52448 -81.09996 19883 ft 345 kts 328°
2026-04-30 19:17 11.56581 -81.12413 19184 ft 340 kts 324°
2026-04-30 19:17 11.58479 -81.13820 18850 ft 336 kts 319°
2026-04-30 19:18 11.61472 -81.16322 18282 ft 333 kts 318°
2026-04-30 19:18 11.63822 -81.18316 17831 ft 331 kts 318°
2026-04-30 19:18 11.65595 -81.19805 17498 ft 330 kts 319°
2026-04-30 19:19 11.67358 -81.21274 17247 ft 325 kts 319°
2026-04-30 19:19 11.69105 -81.22719 16906 ft 323 kts 319°
2026-04-30 19:19 11.72585 -81.25585 16270 ft 320 kts 320°
2026-04-30 19:20 11.74311 -81.27002 15952 ft 317 kts 320°
2026-04-30 19:20 11.76027 -81.28412 15617 ft 316 kts 320°
2026-04-30 19:20 11.79416 -81.31192 14977 ft 313 kts 320°
2026-04-30 19:21 11.81109 -81.32582 14690 ft 311 kts 320°
2026-04-30 19:21 11.84483 -81.35351 14199 ft 311 kts 320°
2026-04-30 19:22 11.87871 -81.38132 13732 ft 314 kts 320°
2026-04-30 19:22 11.92969 -81.42325 12840 ft 320 kts 321°
2026-04-30 19:23 11.98011 -81.46458 11915 ft 304 kts 321°
2026-04-30 19:24 12.01282 -81.49148 11309 ft 300 kts 322°
2026-04-30 19:24 12.02902 -81.50479 10986 ft 298 kts 322°
2026-04-30 19:24 12.06100 -81.53111 10386 ft 296 kts 322°
2026-04-30 19:25 12.10823 -81.56997 9766 ft 283 kts 323°
2026-04-30 19:26 12.13883 -81.59512 9196 ft 281 kts 324°
2026-04-30 19:26 12.16903 -81.61995 8607 ft 279 kts 324°
2026-04-30 19:26 12.18431 -81.63252 8302 ft 278 kts 324°
2026-04-30 19:27 12.21418 -81.65711 7710 ft 277 kts 324°
2026-04-30 19:27 12.24408 -81.68173 7113 ft 275 kts 324°
2026-04-30 19:28 12.25896 -81.69395 6827 ft 274 kts 324°
2026-04-30 19:28 12.28856 -81.71835 6244 ft 272 kts 324°
2026-04-30 19:29 12.31794 -81.74257 5678 ft 270 kts 324°
2026-04-30 19:29 12.33256 -81.75464 5396 ft 270 kts 324°
2026-04-30 19:30 12.37597 -81.79043 4566 ft 267 kts 325°
2026-04-30 19:30 12.40450 -81.81396 4001 ft 263 kts 325°
2026-04-30 19:31 12.43390 -81.83275 3435 ft 241 kts 335°
2026-04-30 19:31 12.44799 -81.84093 3286 ft 224 kts 335°
2026-04-30 19:31 12.47264 -81.85545 3155 ft 189 kts 335°
2026-04-30 19:32 12.48409 -81.85975 3085 ft 163 kts 10°
2026-04-30 19:32 12.49340 -81.85471 3066 ft 154 kts 47°
2026-04-30 19:32 12.50155 -81.84755 2847 ft 153 kts 43°
2026-04-30 19:32 12.50810 -81.83943 2654 ft 144 kts 55°
2026-04-30 19:33 12.51396 -81.83111 2483 ft 147 kts 55°
2026-04-30 19:33 12.51955 -81.82230 2296 ft 149 kts 57°
2026-04-30 19:33 12.52492 -81.81341 2095 ft 144 kts 59°
2026-04-30 19:33 12.52982 -81.80503 1920 ft 137 kts 59°
2026-04-30 19:34 12.53460 -81.79678 1733 ft 131 kts 59°
2026-04-30 19:34 12.53928 -81.78865 1559 ft 133 kts 59°
2026-04-30 19:34 12.54878 -81.77213 1190 ft 135 kts 60°
2026-04-30 19:35 12.55352 -81.76388 1033 ft 132 kts 60°
2026-04-30 19:35 12.55820 -81.75574 831 ft 134 kts 60°
2026-04-30 19:35 12.56294 -81.74749 659 ft 135 kts 59°
2026-04-30 19:35 12.56748 -81.73937 546 ft 135 kts 61°
2026-04-30 19:36 12.57218 -81.73082 357 ft 138 kts 59°
2026-04-30 19:36 12.57711 -81.72244 105 ft 136 kts 59°
2026-04-30 19:36 12.58470 -81.70928 19 ft 55 kts 59°
2026-04-30 19:37 12.58557 -81.70777 18 ft 0 kts 59°
2026-04-30 19:37 12.58581 -81.70737 18 ft 13 kts 59°
2026-04-30 19:37 12.58636 -81.70644 17 ft 18 kts 58°
2026-04-30 19:37 12.58707 -81.70525 16 ft 19 kts 58°
2026-04-30 19:38 12.58727 -81.70424 14 ft 10 kts 99°
2026-04-30 19:38 12.58708 -81.70368 14 ft 0 kts 102°
2026-04-30 19:39 12.58708 -81.70366 14 ft 1 kts 101°
2026-04-30 19:39 12.58713 -81.70336 15 ft 9 kts 67°
2026-04-30 19:39 12.58707 -81.70292 15 ft 6 kts 140°
2026-04-30 19:40 12.58670 -81.70303 14 ft 6 kts 230°
2026-04-30 19:40 12.58680 -81.70330 13 ft 4 kts 324°
2026-04-30 19:40 12.58709 -81.70329 14 ft 4 kts 24°
2026-04-30 19:40 12.58730 -81.70303 13 ft 6 kts 60°
2026-04-30 19:41 12.58731 -81.70261 13 ft 7 kts 120°
2026-04-30 19:41 12.58696 -81.70234 12 ft 3 kts 149°
2026-04-30 19:41 12.58688 -81.70229 11 ft 0 kts 149°
2026-04-30 19:41 12.58685 -81.70227 11 ft 1 kts 151°
2026-04-30 19:42 12.58684 -81.70227 11 ft 0 kts 151°